Port Heiden, AK

12:21 AM AKST on February 24, 2017 (GMT -0900)
Port Heiden

Weather History for PAPH - November, 2013

Change the Weather History Date:

Wednesday, November 20, 2013

  Actual Average Record
Temperature  
Mean Temperature 24 °F -  
Max Temperature 28 °F 37 °F 51 °F (2003)
Min Temperature 19 °F 28 °F 3 °F (2005)
Degree Days  
Heating Degree Days 42    
Moisture  
Dew Point 13 °F    
Average Humidity 66    
Maximum Humidity 80    
Minimum Humidity 50    
Precipitation  
Precipitation 0.00 in - - ()
Sea Level Pressure  
Sea Level Pressure 29.68 in    
Wind  
Wind Speed 12 mph (NE)    
Max Wind Speed 21 mph    
Max Gust Speed 91 mph    
Visibility 10 miles    
Events      
Averages and records for this station are not official NWS values.
T = Trace of Precipitation, MM = Missing Value Source: NWS Daily Summary

Daily Weather History Graph

Daily Weather History Graph

Search for Another Location

Airport or City:

Trip Planner

Search our weather history database for the weather conditions in past years. The results will help you decide how hot, cold, wet, or windy it might be!

Date:

Astronomy

Nov. 20, 2013 Rise Set
Actual Time 9:27 AM AKST 5:12 PM AKST
Civil Twilight 8:42 AM AKST 5:57 PM AKST
Nautical Twilight 7:54 AM AKST 6:45 PM AKST
Astronomical Twilight 7:09 AM AKST 7:30 PM AKST
Moon 8:06 PM AKST (11/20) 12:01 PM AKST (11/20)
Length of Visible Light 9h 15m
Length of Day
7h 45m
Waning Gibbous, 90% of the Moon is Illuminated
Nov 20
Waning Gibbous
Nov 25
Last Quarter
Dec 2
New
Dec 9
First Quarter
Dec 17
Full

Hourly Weather History & Observations

Time (AKST) Temp. Windchill Dew Point Humidity Pressure Visibility Wind Dir Wind Speed Gust Speed Precip Events Conditions
12:16 AM 21.2 °F 13.6 °F 10.4 °F 63% 29.92 in 10.0 mi ENE 5.8 mph - N/A   Mostly Cloudy
12:36 AM 21.2 °F 11.7 °F 8.6 °F 58% 29.91 in 10.0 mi NE 8.1 mph - N/A   Overcast
12:56 AM 21.2 °F 13.6 °F 8.6 °F 58% 29.90 in 10.0 mi NNE 5.8 mph - N/A   Overcast
1:16 AM 21.2 °F 13.6 °F 10.4 °F 63% 29.89 in 10.0 mi NNE 5.8 mph - N/A   Overcast
1:36 AM 21.2 °F 13.6 °F 10.4 °F 63% 29.88 in 10.0 mi NE 5.8 mph - N/A   Overcast
1:56 AM 21.2 °F 16.4 °F 10.4 °F 63% 29.87 in 10.0 mi ENE 3.5 mph - N/A   Overcast
2:16 AM 23.0 °F 18.4 °F 10.4 °F 59% 29.86 in 10.0 mi ENE 3.5 mph - N/A   Mostly Cloudy
2:36 AM 23.0 °F 13.9 °F 10.4 °F 59% 29.85 in 10.0 mi NE 8.1 mph - N/A   Partly Cloudy
2:56 AM 21.2 °F 11.7 °F 10.4 °F 63% 29.84 in 10.0 mi NE 8.1 mph - N/A   Mostly Cloudy
3:16 AM 21.2 °F 10.9 °F 10.4 °F 63% 29.83 in 10.0 mi NE 9.2 mph - N/A   Scattered Clouds
3:36 AM 21.2 °F 10.9 °F 10.4 °F 63% 29.82 in 10.0 mi NE 9.2 mph - N/A   Partly Cloudy
3:56 AM 23.0 °F 13.1 °F 12.2 °F 63% 29.81 in 10.0 mi NE 9.2 mph - N/A   Clear
4:16 AM 23.0 °F 11.7 °F 12.2 °F 63% 29.80 in 10.0 mi NE 11.5 mph - N/A   Mostly Cloudy
4:36 AM 21.2 °F 10.1 °F 14.0 °F 74% 29.79 in 10.0 mi NE 10.4 mph - N/A   Overcast
4:56 AM 21.2 °F 9.5 °F 15.8 °F 80% 29.78 in 10.0 mi NE 11.5 mph - N/A   Overcast
5:16 AM 23.0 °F 12.4 °F 14.0 °F 68% 29.77 in 10.0 mi NE 10.4 mph - N/A   Overcast
5:36 AM 23.0 °F 12.4 °F 14.0 °F 68% 29.75 in 10.0 mi NE 10.4 mph - N/A   Overcast
5:56 AM 24.8 °F 14.6 °F 15.8 °F 69% 29.74 in 10.0 mi NE 10.4 mph - N/A   Overcast
6:16 AM 26.6 °F 15.2 °F 15.8 °F 64% 29.73 in 10.0 mi NE 13.8 mph - N/A   Overcast
6:36 AM 26.6 °F 15.7 °F 15.8 °F 64% 29.72 in 10.0 mi NE 12.7 mph - N/A   Mostly Cloudy
6:56 AM 28.4 °F 18.0 °F 17.6 °F 64% 29.72 in 10.0 mi NE 12.7 mph - N/A   Partly Cloudy
7:16 AM 28.4 °F 17.5 °F 17.6 °F 64% 29.70 in 10.0 mi NE 13.8 mph - N/A   Clear
7:36 AM 28.4 °F 17.5 °F 15.8 °F 59% 29.70 in 10.0 mi NE 13.8 mph - N/A   Partly Cloudy
7:56 AM 26.6 °F 14.7 °F 15.8 °F 64% 29.70 in 10.0 mi NE 15.0 mph - N/A   Scattered Clouds
8:16 AM 26.6 °F 14.7 °F 15.8 °F 64% 29.70 in 10.0 mi NE 15.0 mph - N/A   Overcast
8:36 AM 26.6 °F 15.7 °F 15.8 °F 64% 29.69 in 10.0 mi NNE 12.7 mph - N/A   Overcast
8:56 AM 26.6 °F 15.2 °F 15.8 °F 64% 29.69 in 10.0 mi NNE 13.8 mph - N/A   Overcast
9:16 AM 26.6 °F 13.8 °F 15.8 °F 64% 29.68 in 10.0 mi NE 17.3 mph - N/A   Overcast
9:36 AM 26.6 °F 21.2 °F 17.6 °F 69% 29.68 in 10.0 mi East 4.6 mph 17.3 mph N/A   Overcast
9:56 AM 26.6 °F - 17.6 °F 69% 29.68 in 10.0 mi Calm Calm - N/A   Overcast
10:16 AM 24.8 °F 11.1 °F 15.8 °F 69% 29.67 in 10.0 mi NE 18.4 mph 90.9 mph N/A   Overcast
10:36 AM 24.8 °F 11.9 °F 15.8 °F 69% 29.67 in 10.0 mi NE 16.1 mph - N/A   Overcast
10:56 AM 24.8 °F 10.7 °F 15.8 °F 69% 29.67 in 10.0 mi NE 19.6 mph - N/A   Overcast
11:16 AM 24.8 °F 11.1 °F 15.8 °F 69% 29.67 in 10.0 mi NE 18.4 mph 23.0 mph N/A   Overcast
11:36 AM 24.8 °F 11.1 °F 15.8 °F 69% 29.66 in 10.0 mi NE 18.4 mph - N/A   Overcast
11:56 AM 24.8 °F 10.3 °F 15.8 °F 69% 29.66 in 10.0 mi NE 20.7 mph 26.5 mph N/A   Overcast
12:16 PM 24.8 °F 10.3 °F 17.6 °F 74% 29.65 in 10.0 mi NE 20.7 mph - N/A   Overcast
12:36 PM 24.8 °F 10.7 °F 15.8 °F 69% 29.65 in 10.0 mi NE 19.6 mph 24.2 mph N/A   Overcast
12:56 PM 24.8 °F 10.7 °F 15.8 °F 69% 29.64 in 10.0 mi NE 19.6 mph 24.2 mph N/A   Overcast
1:16 PM 24.8 °F 10.3 °F 15.8 °F 69% 29.63 in 10.0 mi NE 20.7 mph - N/A   Overcast
1:36 PM 23.0 °F 8.0 °F 14.0 °F 68% 29.62 in 10.0 mi NNE 20.7 mph 24.2 mph N/A   Overcast
1:56 PM 23.0 °F 8.0 °F 14.0 °F 68% 29.62 in 10.0 mi NE 20.7 mph - N/A   Overcast
2:16 PM 23.0 °F 8.7 °F 14.0 °F 68% 29.62 in 10.0 mi NE 18.4 mph - N/A   Overcast
2:36 PM 23.0 °F 8.0 °F 12.2 °F 63% 29.61 in 10.0 mi NE 20.7 mph 24.2 mph N/A   Overcast
2:56 PM 23.0 °F 9.2 °F 15.8 °F 74% 29.61 in 10.0 mi NE 17.3 mph - N/A   Overcast
3:16 PM 21.2 °F 6.8 °F 12.2 °F 68% 29.61 in 10.0 mi NNE 17.3 mph - N/A   Overcast
3:36 PM 21.2 °F 5.6 °F 14.0 °F 74% 29.60 in 10.0 mi NE 20.7 mph 24.2 mph N/A   Overcast
3:56 PM 21.2 °F 6.4 °F 12.2 °F 68% 29.60 in 10.0 mi NE 18.4 mph 24.2 mph N/A   Overcast
4:16 PM 21.2 °F 6.4 °F 12.2 °F 68% 29.60 in 10.0 mi NE 18.4 mph - N/A   Overcast
4:36 PM 21.2 °F 7.3 °F 14.0 °F 74% 29.60 in 10.0 mi NE 16.1 mph - N/A   Overcast
4:56 PM 21.2 °F 6.8 °F 12.2 °F 68% 29.59 in 10.0 mi NE 17.3 mph - N/A   Overcast
5:16 PM 21.2 °F 6.0 °F 12.2 °F 68% 29.59 in 10.0 mi NE 19.6 mph 24.2 mph N/A   Overcast
5:36 PM 21.2 °F 6.4 °F 12.2 °F 68% 29.60 in 10.0 mi NE 18.4 mph - N/A   Overcast
5:56 PM 21.2 °F 6.0 °F 12.2 °F 68% 29.59 in 10.0 mi NNE 19.6 mph - N/A   Overcast
6:16 PM 21.2 °F 7.3 °F 14.0 °F 74% 29.60 in 10.0 mi NE 16.1 mph 21.9 mph N/A   Overcast
6:36 PM 21.2 °F 7.3 °F 12.2 °F 68% 29.60 in 10.0 mi NE 16.1 mph 21.9 mph N/A   Overcast
6:56 PM 21.2 °F 7.8 °F 12.2 °F 68% 29.60 in 10.0 mi NE 15.0 mph - N/A   Overcast
7:16 PM 21.2 °F 8.3 °F 12.2 °F 68% 29.59 in 10.0 mi NE 13.8 mph 20.7 mph N/A   Overcast
7:36 PM 21.2 °F 7.3 °F 12.2 °F 68% 29.59 in 10.0 mi NE 16.1 mph - N/A   Overcast
7:56 PM 21.2 °F 7.3 °F 10.4 °F 63% 29.59 in 10.0 mi NE 16.1 mph - N/A   Overcast
8:16 PM 21.2 °F 7.3 °F 12.2 °F 68% 29.59 in 10.0 mi NE 16.1 mph - N/A   Overcast
8:36 PM 21.2 °F 7.3 °F 12.2 °F 68% 29.59 in 10.0 mi NE 16.1 mph - N/A   Overcast
8:56 PM 21.2 °F 7.8 °F 10.4 °F 63% 29.59 in 10.0 mi NE 15.0 mph - N/A   Overcast
9:16 PM 19.4 °F 6.0 °F 12.2 °F 74% 29.59 in 8.0 mi NE 13.8 mph - N/A   Overcast
9:36 PM 21.2 °F 8.3 °F 12.2 °F 68% 29.58 in 10.0 mi NE 13.8 mph - N/A   Overcast
9:56 PM 21.2 °F 8.9 °F 12.2 °F 68% 29.58 in 7.0 mi NE 12.7 mph - N/A   Overcast
10:16 PM 21.2 °F 10.1 °F 12.2 °F 68% 29.58 in 9.0 mi NE 10.4 mph - N/A   Overcast
10:36 PM 21.2 °F 9.5 °F 12.2 °F 68% 29.57 in 7.0 mi NE 11.5 mph - N/A   Overcast
10:56 PM 21.2 °F 9.5 °F 12.2 °F 68% 29.57 in 5.0 mi NE 11.5 mph - N/A   Overcast
11:16 PM 21.2 °F 8.9 °F 14.0 °F 74% 29.57 in 8.0 mi NE 12.7 mph - N/A   Overcast
11:36 PM 21.2 °F 9.5 °F 14.0 °F 74% 29.57 in 7.0 mi NE 11.5 mph - N/A   Overcast
11:56 PM 21.2 °F 8.9 °F 14.0 °F 74% 29.56 in 9.0 mi NE 12.7 mph - N/A   Overcast